EW4921 Weather Reports


Display with metric or nautical units.
time (UTC)temp
F
wind
direction
speed
MPH
gust
MPH
rain 1hr
in
rain 24hr
in
rain mn
in
humidity
%
barometer
mb
20260902123027 51 269 0.0 3.0 0.00 0.00 0.00 91 1016.3
20260902122544 51 178 1.0 2.0 0.00 0.00 0.00 91 1016.3
20260902122021 51 63 1.0 2.0 0.00 0.00 0.00 91 1016.3
20260902121543 51 46 1.0 2.0 0.00 0.00 0.00 91 1016.2
20260902121014 50 1 1.0 2.0 0.00 0.00 0.00 91 1016.1
20260902120558 50 1 1.0 2.0 0.00 0.00 0.00 91 1016.2
20260902120019 50 46 0.0 2.0 0.00 0.00 0.00 91 1016.2
20260902115520 50 72 1.0 2.0 0.00 0.00 0.00 90 1016.2
20260902115017 50 178 1.0 2.0 0.00 0.00 0.00 90 1016.3
20260902114519 50 324 0.0 2.0 0.00 0.00 0.00 90 1016.4
20260902114031 50 89 1.0 2.0 0.00 0.00 0.00 90 1016.4
20260902113532 50 89 1.0 2.0 0.00 0.00 0.00 90 1016.4
20260902113017 50 314 0.0 1.0 0.00 0.00 0.00 90 1016.4
20260902112538 50 89 0.0 1.0 0.00 0.00 0.00 90 1016.4
20260902112030 51 46 0.0 1.0 0.00 0.00 0.00 90 1016.3
20260902111532 51 46 0.0 1.0 0.00 0.00 0.00 90 1016.2
20260902111044 51 89 0.0 2.0 0.00 0.00 0.00 90 1016.3
20260902110544 51 89 0.0 2.0 0.00 0.00 0.00 90 1016.3
20260902110036 51 46 0.0 2.0 0.00 0.00 0.00 90 1016.3
20260902105536 51 89 0.0 1.0 0.00 0.00 0.00 90 1016.3
20260902105014 51 28 0.0 1.0 0.00 0.00 0.00 89 1016.4
20260902104534 51 28 0.0 2.0 0.00 0.00 0.00 89 1016.4
20260902104027 51 331 0.0 2.0 0.00 0.00 0.00 89 1016.4
20260902103542 51 46 1.0 2.0 0.00 0.00 0.00 89 1016.4
20260902103033 52 295 0.0 1.0 0.00 0.00 0.00 89 1016.3
20260902102535 52 314 0.0 1.0 0.00 0.00 0.00 89 1016.3
20260902102044 52 314 0.0 1.0 0.00 0.00 0.00 89 1016.3
20260902101522 52 46 0.0 1.0 0.00 0.00 0.00 89 1016.4
20260902101037 52 89 0.0 2.0 0.00 0.00 0.00 89 1016.3
20260902100600 52 46 0.0 2.0 0.00 0.00 0.00 89 1016.3
20260902100025 52 344 0.0 2.0 0.00 0.00 0.00 89 1016.3
20260902095519 52 1 0.0 2.0 0.00 0.00 0.00 89 1016.3
20260902095030 52 89 0.0 2.0 0.00 0.00 0.00 89 1016.3
20260902094546 52 1 1.0 2.0 0.00 0.00 0.00 89 1016.3
20260902094043 52 20 1.0 2.0 0.00 0.00 0.00 89 1016.2
20260902093525 53 46 1.0 2.0 0.00 0.00 0.00 92 1016.3
20260902093015 53 1 0.0 2.0 0.00 0.00 0.00 89 1016.4
20260902092535 53 39 1.0 2.0 0.00 0.00 0.00 89 1016.5
20260902092023 53 15 0.0 2.0 0.00 0.00 0.00 89 1016.4
20260902091516 53 46 1.0 1.0 0.00 0.00 0.00 88 1016.5
20260902091028 53 46 0.0 2.0 0.00 0.00 0.00 88 1016.6
20260902090623 53 46 1.0 2.0 0.00 0.00 0.00 88 1016.6
20260902090026 53 1 0.0 2.0 0.00 0.00 0.00 88 1016.4
20260902085525 53 28 0.0 2.0 0.00 0.00 0.00 88 1016.5
20260902085035 53 1 1.0 2.0 0.00 0.00 0.00 88 1016.5
20260902084558 53 35 0.0 1.0 0.00 0.00 0.00 88 1016.4
20260902084028 54 63 0.0 1.0 0.00 0.00 0.00 88 1016.5
20260902083531 54 63 0.0 1.0 0.00 0.00 0.00 88 1016.6
20260902083023 54 295 0.0 1.0 0.00 0.00 0.00 88 1016.5
20260902082519 54 1 0.0 2.0 0.00 0.00 0.00 88 1016.5
20260902082018 54 28 1.0 3.0 0.00 0.00 0.00 88 1016.5
20260902081538 54 344 2.0 3.0 0.00 0.00 0.00 88 1016.5
20260902081050 54 63 1.0 2.0 0.00 0.00 0.00 88 1016.5
20260902080602 54 46 0.0 2.0 0.00 0.00 0.00 87 1016.5
20260902080026 54 1 0.0 2.0 0.00 0.00 0.00 87 1016.5
20260902075522 54 46 1.0 2.0 0.00 0.00 0.00 87 1016.4
20260902075034 54 1 1.0 2.0 0.00 0.00 0.00 87 1016.5
20260902074555 55 46 1.0 2.0 0.00 0.00 0.00 87 1016.5
20260902074046 55 89 1.0 2.0 0.00 0.00 0.00 87 1016.5
20260902073526 55 46 1.0 2.0 0.00 0.00 0.00 87 1016.4
20260902073034 55 28 0.0 2.0 0.00 0.00 0.00 87 1016.4
20260902072534 55 46 1.0 2.0 0.00 0.00 0.00 86 1016.4
20260902072047 55 46 0.0 2.0 0.00 0.00 0.00 86 1016.4
20260902071519 55 1 0.0 2.0 0.00 0.00 0.00 86 1016.4
20260902071047 55 20 1.0 2.0 0.00 0.00 0.00 86 1016.3
20260902070551 55 1 0.0 2.0 0.00 0.00 0.00 86 1016.2
20260902070040 55 72 1.0 2.0 0.00 0.00 0.00 86 1016.2
20260902065535 56 1 1.0 2.0 0.00 0.00 0.00 86 1016.2
20260902065023 56 20 0.0 2.0 0.00 0.00 0.00 85 1016.2
20260902064526 56 1 1.0 2.0 0.00 0.00 0.00 85 1016.1
20260902064033 56 336 1.0 2.0 0.00 0.00 0.00 85 1016.1
20260902063555 56 1 1.0 2.0 0.00 0.00 0.00 85 1016.0
20260902063026 56 20 1.0 2.0 0.00 0.00 0.00 85 1016.0
20260902062527 56 72 1.0 2.0 0.00 0.00 0.00 85 1015.9
20260902062041 56 1 0.0 2.0 0.00 0.00 0.00 84 1016.0
20260902061538 57 1 0.0 1.0 0.00 0.00 0.00 84 1016.0
20260902061029 57 331 0.0 1.0 0.00 0.00 0.00 84 1016.0
20260902060603 57 46 0.0 1.0 0.00 0.00 0.00 84 1015.9
20260902060047 57 46 0.0 1.0 0.00 0.00 0.00 84 1016.0
20260902055522 57 28 0.0 1.0 0.00 0.00 0.00 84 1015.9
20260902055018 57 89 1.0 1.0 0.00 0.00 0.00 83 1016.0
20260902054600 58 89 0.0 1.0 0.00 0.00 0.00 83 1015.9
20260902054030 58 1 0.0 1.0 0.00 0.00 0.00 83 1015.9
20260902053533 58 1 1.0 1.0 0.00 0.00 0.00 82 1015.9
20260902053025 58 46 0.0 1.0 0.00 0.00 0.00 82 1015.9
20260902052542 58 89 0.0 1.0 0.00 0.00 0.00 82 1015.9
20260902052032 59 314 0.0 1.0 0.00 0.00 0.00 81 1016.0
20260902051554 59 314 1.0 1.0 0.00 0.00 0.00 81 1016.1
20260902051026 59 1 0.0 2.0 0.00 0.00 0.00 81 1016.0
20260902050602 59 46 1.0 2.0 0.00 0.00 0.00 80 1016.1
20260902050027 60 1 1.0 1.0 0.00 0.00 0.00 80 1016.1
20260902045538 60 46 1.0 1.0 0.00 0.00 0.00 80 1016.0
20260902045028 60 89 0.0 1.0 0.00 0.00 0.00 80 1016.0
20260902044522 60 46 0.0 1.0 0.00 0.00 0.00 80 1016.0
20260902044021 61 295 0.0 1.0 0.00 0.00 0.00 79 1015.9
20260902043522 61 46 0.0 2.0 0.00 0.00 0.00 79 1015.9
20260902043030 61 35 0.0 2.0 0.00 0.00 0.00 78 1015.9
20260902042532 62 28 1.0 1.0 0.00 0.00 0.00 78 1015.8
20260902042025 62 314 1.0 2.0 0.00 0.00 0.00 77 1015.7
20260902041541 63 331 1.0 2.0 0.00 0.00 0.00 77 1015.6
20260902041032 63 331 0.0 2.0 0.00 0.00 0.00 76 1015.6
20260902040551 63 222 0.0 2.0 0.00 0.00 0.00 76 1015.6
20260902040024 63 46 1.0 2.0 0.00 0.00 0.00 76 1015.6
20260902035523 64 233 0.0 2.0 0.00 0.00 0.00 76 1015.5
20260902035021 64 314 1.0 2.0 0.00 0.00 0.00 75 1015.5
20260902034522 64 89 1.0 3.0 0.00 0.00 0.00 74 1015.4
20260902034021 64 46 1.0 4.0 0.00 0.00 0.00 74 1015.3
20260902033523 64 324 1.0 4.0 0.00 0.00 0.00 73 1015.3
20260902033039 65 89 1.0 2.0 0.00 0.00 0.00 72 1015.2
20260902032540 65 216 0.0 4.0 0.00 0.00 0.00 71 1015.3
20260902032031 65 1 1.0 4.0 0.00 0.00 0.00 71 1015.2
20260902031535 66 178 0.0 3.0 0.00 0.00 0.00 71 1015.1
20260902031025 66 178 0.0 2.0 0.00 0.00 0.00 70 1015.1
20260902030544 66 1 1.0 2.0 0.00 0.00 0.00 70 1015.1
20260902030031 67 327 1.0 2.0 0.00 0.00 0.00 69 1015.0
20260902025532 67 269 1.0 3.0 0.00 0.00 0.00 68 1014.9
20260902025024 67 269 0.0 3.0 0.00 0.00 0.00 67 1014.9
20260902024524 68 314 1.0 3.0 0.00 0.00 0.00 66 1014.9
20260902024016 68 161 1.0 3.0 0.00 0.00 0.00 65 1014.9
20260902023533 69 164 1.0 3.0 0.00 0.00 0.00 64 1014.9
20260902023050 69 46 0.0 3.0 0.00 0.00 0.00 63 1014.7
20260902022531 69 46 0.0 3.0 0.00 0.00 0.00 63 1014.7
20260902022023 70 1 1.0 3.0 0.00 0.00 0.00 62 1014.8
20260902021525 70 72 1.0 3.0 0.00 0.00 0.00 61 1014.8
20260902021021 70 110 1.0 3.0 0.00 0.00 0.00 61 1014.7
20260902020600 70 314 0.0 4.0 0.00 0.00 0.00 61 1014.8
20260902020026 71 211 2.0 4.0 0.00 0.00 0.00 60 1014.7
20260902015527 71 135 1.0 4.0 0.00 0.00 0.00 60 1014.6
20260902015037 71 327 1.0 4.0 0.00 0.00 0.00 61 1014.6
20260902014537 72 1 1.0 3.0 0.00 0.00 0.00 62 1014.7
20260902014024 72 46 1.0 3.0 0.00 0.00 0.00 61 1014.7
20260902013516 72 135 0.0 3.0 0.00 0.00 0.00 60 1014.6
20260902013054 72 314 1.0 3.0 0.00 0.00 0.00 60 1014.7
20260902012556 73 269 1.0 4.0 0.00 0.00 0.00 62 1014.7
20260902012027 73 250 1.0 5.0 0.00 0.00 0.00 60 1014.6
20260902011518 73 46 1.0 5.0 0.00 0.00 0.00 60 1014.7
20260902011017 73 269 1.0 6.0 0.00 0.00 0.00 60 1014.6
20260902010541 74 20 2.0 6.0 0.00 0.00 0.00 60 1014.7
20260902010014 74 46 1.0 5.0 0.00 0.00 0.00 60 1014.8
20260902005536 74 35 1.0 5.0 0.00 0.00 0.00 60 1014.8
20260902005028 74 117 2.0 6.0 0.00 0.00 0.00 59 1014.7
20260902004525 74 233 2.0 5.0 0.00 0.00 0.00 59 1014.7
20260902004026 75 240 2.0 5.0 0.00 0.00 0.00 59 1014.7
20260902003545 75 286 2.0 5.0 0.00 0.00 0.00 59 1014.8
20260902003023 75 327 2.0 6.0 0.00 0.00 0.00 59 1014.8
20260902002545 75 161 3.0 6.0 0.00 0.00 0.00 59 1014.7
20260902002019 75 203 3.0 8.0 0.00 0.00 0.00 59 1014.8
20260902001514 76 335 4.0 8.0 0.00 0.00 0.00 58 1014.8
20260902001015 77 302 2.0 8.0 0.00 0.00 0.00 57 1014.8
20260902000559 76 39 2.0 8.0 0.00 0.00 0.00 57 1014.8
20260902000025 77 213 4.0 8.0 0.00 0.00 0.00 58 1014.8
20260901235546 77 245 2.0 7.0 0.00 0.00 0.00 58 1014.8
20260901235052 77 216 3.0 9.0 0.00 0.00 0.00 58 1014.9
20260901234533 77 46 2.0 6.0 0.00 0.00 0.00 57 1014.9
20260901234023 77 186 3.0 6.0 0.00 0.00 0.00 57 1014.9
20260901233544 78 285 2.0 7.0 0.00 0.00 0.00 55 1014.9
20260901233022 78 46 3.0 9.0 0.00 0.00 0.00 55 1014.9
20260901232520 78 222 4.0 9.0 0.00 0.00 0.00 55 1015.0
20260901232031 78 140 3.0 8.0 0.00 0.00 0.00 56 1014.9
20260901231534 78 161 4.0 9.0 0.00 0.00 0.00 55 1015.0
20260901231024 77 197 3.0 10.0 0.00 0.00 0.00 56 1015.1
20260901230548 77 344 3.0 10.0 0.00 0.00 0.00 56 1015.0
20260901230032 78 281 2.0 10.0 0.00 0.00 0.00 56 1015.0
20260901225554 78 314 4.0 10.0 0.00 0.00 0.00 56 1015.1
20260901225024 77 160 3.0 10.0 0.00 0.00 0.00 57 1015.1
20260901224518 77 344 2.0 9.0 0.00 0.00 0.00 57 1015.1
20260901224057 77 199 2.0 12.0 0.00 0.00 0.00 58 1015.1
20260901223553 77 314 4.0 10.0 0.00 0.00 0.00 56 1015.1
20260901223024 79 264 5.0 10.0 0.00 0.00 0.00 54 1015.1
20260901222539 79 23 3.0 11.0 0.00 0.00 0.00 55 1015.1
20260901222030 79 32 3.0 12.0 0.00 0.00 0.00 55 1015.1
20260901221531 80 312 4.0 10.0 0.00 0.00 0.00 55 1015.1
20260901221024 80 219 4.0 11.0 0.00 0.00 0.00 54 1015.1
20260901220545 80 240 4.0 11.0 0.00 0.00 0.00 55 1015.1
20260901220016 80 269 4.0 11.0 0.00 0.00 0.00 55 1015.0
20260901215540 80 341 4.0 10.0 0.00 0.00 0.00 55 1015.1
20260901215030 80 56 1.0 10.0 0.00 0.00 0.00 58 1015.1
20260901214532 80 15 3.0 9.0 0.00 0.00 0.00 55 1015.2
20260901214024 81 311 3.0 11.0 0.00 0.00 0.00 55 1015.3
20260901213520 82 308 3.0 11.0 0.00 0.00 0.00 56 1015.2
20260901213018 81 269 4.0 8.0 0.00 0.00 0.00 55 1015.2
20260901212559 81 178 3.0 9.0 0.00 0.00 0.00 57 1015.3
20260901212028 81 1 4.0 9.0 0.00 0.00 0.00 55 1015.3
20260901211522 81 1 2.0 10.0 0.00 0.00 0.00 56 1015.4
20260901211036 81 229 3.0 10.0 0.00 0.00 0.00 55 1015.3
20260901210559 80 216 3.0 7.0 0.00 0.00 0.00 57 1015.2
20260901210025 81 46 4.0 7.0 0.00 0.00 0.00 57 1015.3
20260901205537 81 206 2.0 8.0 0.00 0.00 0.00 54 1015.3
20260901205028 81 344 3.0 9.0 0.00 0.00 0.00 55 1015.4
20260901204529 81 302 4.0 9.0 0.00 0.00 0.00 53 1015.5
20260901204014 82 218 3.0 9.0 0.00 0.00 0.00 53 1015.4
20260901203539 82 245 4.0 9.0 0.00 0.00 0.00 53 1015.5
20260901203052 82 224 3.0 9.0 0.00 0.00 0.00 51 1015.5
20260901202532 82 323 3.0 8.0 0.00 0.00 0.00 52 1015.5
20260901202044 82 233 3.0 8.0 0.00 0.00 0.00 52 1015.6
20260901201513 82 41 2.0 5.0 0.00 0.00 0.00 55 1015.7
20260901201015 81 161 2.0 7.0 0.00 0.00 0.00 54 1015.7
20260901200539 81 297 3.0 8.0 0.00 0.00 0.00 54 1015.8
20260901200032 81 321 3.0 8.0 0.00 0.00 0.00 54 1015.8
20260901195534 81 326 3.0 7.0 0.00 0.00 0.00 51 1015.8
20260901195023 81 240 2.0 7.0 0.00 0.00 0.00 50 1015.8
20260901194521 81 127 3.0 9.0 0.00 0.00 0.00 52 1015.9
20260901194019 80 183 3.0 9.0 0.00 0.00 0.00 52 1016.0
20260901193520 80 63 2.0 8.0 0.00 0.00 0.00 52 1016.0
20260901193018 81 164 2.0 8.0 0.00 0.00 0.00 53 1016.1
20260901192519 80 324 3.0 9.0 0.00 0.00 0.00 54 1016.1
20260901192046 80 41 3.0 9.0 0.00 0.00 0.00 53 1016.1
20260901191527 80 262 2.0 9.0 0.00 0.00 0.00 53 1016.2
20260901191045 81 203 2.0 5.0 0.00 0.00 0.00 48 1016.2
20260901190542 81 324 2.0 6.0 0.00 0.00 0.00 45 1016.2
20260901190030 80 336 3.0 6.0 0.00 0.00 0.00 45 1016.2
20260901185529 80 286 2.0 5.0 0.00 0.00 0.00 43 1016.2
20260901185035 81 63 1.0 6.0 0.00 0.00 0.00 42 1016.3
20260901184535 80 201 3.0 5.0 0.00 0.00 0.00 42 1016.3
20260901184026 81 216 2.0 7.0 0.00 0.00 0.00 43 1016.3
20260901183520 80 262 3.0 7.0 0.00 0.00 0.00 45 1016.4
20260901183032 79 152 2.0 5.0 0.00 0.00 0.00 48 1016.4
20260901182547 78 164 1.0 5.0 0.00 0.00 0.00 50 1016.4
20260901182024 79 89 3.0 8.0 0.00 0.00 0.00 52 1016.4
20260901181517 78 218 3.0 8.0 0.00 0.00 0.00 52 1016.4
20260901181015 76 1 2.0 8.0 0.00 0.00 0.00 55 1016.4
20260901180559 77 338 2.0 8.0 0.00 0.00 0.00 55 1016.4
20260901180025 76 331 1.0 5.0 0.00 0.00 0.00 55 1016.5
20260901175543 77 152 2.0 6.0 0.00 0.00 0.00 55 1016.5
20260901175020 76 210 3.0 6.0 0.00 0.00 0.00 56 1016.4
20260901174542 76 300 2.0 6.0 0.00 0.00 0.00 56 1016.4
20260901174030 75 201 2.0 6.0 0.00 0.00 0.00 60 1016.4
20260901173521 75 206 2.0 5.0 0.00 0.00 0.00 59 1016.4
20260901173017 74 331 2.0 4.0 0.00 0.00 0.00 59 1016.3
20260901172519 74 269 1.0 6.0 0.00 0.00 0.00 59 1016.3
20260901172057 74 140 3.0 7.0 0.00 0.00 0.00 61 1016.3
20260901171536 73 166 3.0 7.0 0.00 0.00 0.00 62 1016.3
20260901171049 73 1 2.0 7.0 0.00 0.00 0.00 63 1016.3
20260901170546 72 186 2.0 6.0 0.00 0.00 0.00 64 1016.3
20260901170016 72 121 3.0 6.0 0.00 0.00 0.00 66 1016.4
20260901165517 71 161 3.0 6.0 0.00 0.00 0.00 67 1016.5
20260901165051 70 302 1.0 4.0 0.00 0.00 0.00 68 1016.4
20260901164532 70 331 1.0 6.0 0.00 0.00 0.00 71 1016.4
20260901164020 70 145 1.0 5.0 0.00 0.00 0.00 69 1016.4
20260901163520 69 46 2.0 5.0 0.00 0.00 0.00 71 1016.4
20260901163032 69 269 2.0 5.0 0.00 0.00 0.00 72 1016.3
20260901162534 68 269 2.0 5.0 0.00 0.00 0.00 73 1016.3
20260901162024 68 79 2.0 6.0 0.00 0.00 0.00 73 1016.2
20260901161546 68 131 2.0 8.0 0.00 0.00 0.00 75 1016.1
20260901161056 67 126 3.0 8.0 0.00 0.00 0.00 75 1016.1
20260901160602 67 164 2.0 7.0 0.00 0.00 0.00 77 1016.2
20260901160026 65 178 2.0 7.0 0.00 0.00 0.00 80 1016.2
20260901155520 64 53 2.0 7.0 0.00 0.00 0.00 85 1016.1
20260901155030 64 100 2.0 5.0 0.00 0.00 0.00 91 1016.1
20260901154538 62 75 2.0 5.0 0.00 0.00 0.00 93 1016.0
20260901154036 61 124 1.0 2.0 0.00 0.00 0.00 93 1016.1
20260901153556 60 253 1.0 2.0 0.00 0.00 0.00 93 1016.1
20260901153046 60 135 1.0 2.0 0.00 0.00 0.00 93 1016.1
20260901152521 59 121 1.0 2.0 0.00 0.00 0.00 93 1016.1
20260901152033 58 89 0.0 2.0 0.00 0.00 0.00 93 1016.2
20260901151534 58 135 0.0 3.0 0.00 0.00 0.00 93 1016.1
20260901151025 57 28 1.0 3.0 0.00 0.00 0.00 93 1016.1
20260901150549 56 295 1.0 2.0 0.00 0.00 0.00 93 1016.1
20260901150021 56 89 1.0 2.0 0.00 0.00 0.00 93 1016.0
20260901145518 55 46 1.0 2.0 0.00 0.00 0.00 93 1015.9
20260901145018 55 46 0.0 1.0 0.00 0.00 0.00 93 1015.8
20260901144539 55 135 0.0 2.0 0.00 0.00 0.00 93 1015.6
20260901144031 54 178 0.0 2.0 0.00 0.00 0.00 92 1015.8
20260901143534 54 28 1.0 2.0 0.00 0.00 0.00 93 1015.6
20260901143024 54 1 1.0 2.0 0.00 0.00 0.00 92 1015.5
20260901142514 53 314 1.0 2.0 0.00 0.00 0.00 92 1015.5
20260901142026 53 63 0.0 2.0 0.00 0.00 0.00 92 1015.5
20260901141527 53 314 1.0 2.0 0.00 0.00 0.00 92 1015.3
20260901141018 52 46 0.0 2.0 0.00 0.00 0.00 92 1015.2
20260901140559 52 178 0.0 2.0 0.00 0.00 0.00 92 1015.2
20260901140024 52 336 1.0 2.0 0.00 0.00 0.00 92 1015.2
20260901135515 52 314 1.0 2.0 0.00 0.00 0.00 92 1015.1
20260901135028 52 331 2.0 2.0 0.00 0.00 0.00 92 1015.0
20260901134530 52 1 1.0 2.0 0.00 0.00 0.00 92 1014.9
20260901134024 52 1 1.0 2.0 0.00 0.00 0.00 92 1014.9
20260901133526 52 46 1.0 2.0 0.00 0.00 0.00 92 1014.9
20260901133053 52 314 0.0 2.0 0.00 0.00 0.00 92 1014.9
20260901132554 52 178 0.0 2.0 0.00 0.00 0.00 92 1014.8
20260901132024 52 89 1.0 2.0 0.00 0.00 0.00 92 1015.0
20260901131525 52 269 1.0 2.0 0.00 0.00 0.00 92 1015.0
20260901131036 52 46 0.0 1.0 0.00 0.00 0.00 92 1015.1
20260901130557 51 269 0.0 1.0 0.00 0.00 0.00 91 1015.1
20260901130022 51 331 0.0 1.0 0.00 0.00 0.00 91 1015.2
20260901125522 51 89 0.0 1.0 0.00 0.00 0.00 91 1015.2
20260901125033 51 331 0.0 2.0 0.00 0.00 0.00 91 1015.2
20260901124536 51 1 0.0 2.0 0.00 0.00 0.00 91 1015.2
20260901124028 51 314 0.0 1.0 0.00 0.00 0.00 91 1015.2
20260901123522 51 46 0.0 1.0 0.00 0.00 0.00 91 1015.2